DW9672 Weather Reports


time (UTC)temp
C
wind
direction
speed
KPH
gust
KPH
rain 1hr
cm
rain 24hr
cm
rain mn
cm
humidity
%
barometer
mb
20260906021536 23 42 0.0 1.6 0.00 0.03 0.03 89 1015.8
20260906020016 24 40 0.0 6.4 0.00 0.03 0.03 88 1015.4
20260906014515 24 65 0.0 9.7 0.00 0.03 0.03 88 1015.2
20260906013115 25 20 1.6 9.7 0.00 0.03 0.03 88 1014.9
20260906011605 25 26 0.0 0.0 0.00 0.03 0.03 87 1015.0
20260906010058 25 26 0.0 0.0 0.00 0.03 0.03 86 1015.0
20260906004539 25 26 0.0 3.2 0.00 0.05 0.03 85 1015.0
20260906003038 26 32 0.0 0.0 0.00 0.05 0.03 83 1014.8
20260906001521 26 32 0.0 4.8 0.00 0.05 0.03 82 1014.8
20260906000036 26 36 1.6 9.7 0.00 0.05 0.03 81 1014.9
20260905234507 26 29 1.6 9.7 0.00 0.05 0.03 81 1014.8
20260905233006 27 103 1.6 9.7 0.00 0.05 0.03 80 1014.5
20260905231505 27 96 3.2 17.7 0.00 0.05 0.03 79 1014.5
20260905230004 28 60 6.4 16.1 0.00 0.05 0.03 77 1014.5
20260905224504 28 51 6.4 17.7 0.00 0.05 0.03 77 1014.3
20260905223007 29 58 8.0 16.1 0.00 0.05 0.03 75 1014.1
20260905221502 30 19 3.2 17.7 0.00 0.05 0.03 76 1014.0
20260905220003 30 74 6.4 17.7 0.00 0.05 0.03 75 1014.0
20260905214547 30 38 6.4 14.5 0.00 0.05 0.03 73 1013.7
20260905213047 30 355 1.6 16.1 0.00 0.05 0.03 74 1013.6
20260905211552 30 67 4.8 14.5 0.00 0.05 0.03 72 1013.6
20260905210048 31 25 6.4 16.1 0.00 0.05 0.03 72 1013.4
20260905204547 31 48 8.0 16.1 0.00 0.05 0.03 73 1013.4
20260905201548 31 52 8.0 14.5 0.00 0.05 0.03 75 1013.7
20260905200048 31 92 3.2 14.5 0.00 0.05 0.03 75 1013.8
20260905194549 31 15 11.3 20.9 0.00 0.05 0.03 74 1013.7
20260905191550 31 9 8.0 16.1 0.03 0.05 0.03 73 1013.7
20260905190047 31 355 6.4 16.1 0.03 0.05 0.03 74 1013.8
20260905184608 31 28 4.8 11.3 0.03 0.05 0.03 73 1013.9
20260905181523 30 23 4.8 11.3 0.00 0.03 0.00 76 1014.2
20260905180027 31 49 6.4 16.1 0.00 0.03 0.00 76 1014.3
20260905174508 31 43 6.4 11.3 0.00 0.05 0.00 77 1014.2
20260905173002 31 63 3.2 14.5 0.00 0.05 0.00 76 1014.3
20260905171545 31 13 6.4 11.3 0.00 0.05 0.00 78 1014.4
20260905170045 30 19 4.8 12.9 0.00 0.05 0.00 78 1014.5
20260905164526 31 355 6.4 14.5 0.00 0.05 0.00 77 1014.5
20260905163024 31 66 0.0 8.0 0.00 0.05 0.00 76 1014.5
20260905161504 30 23 6.4 12.9 0.00 0.05 0.00 77 1014.5
20260905160002 30 42 0.0 12.9 0.00 0.05 0.00 78 1014.4
20260905154606 30 5 0.0 9.7 0.00 0.05 0.00 82 1014.3
20260905153039 29 40 1.6 9.7 0.00 0.05 0.00 84 1014.3
20260905151519 29 346 1.6 11.3 0.00 0.05 0.00 85 1014.2
20260905150017 28 360 4.8 9.7 0.00 0.05 0.00 87 1014.1
20260905144507 28 22 8.0 14.5 0.00 0.05 0.00 87 1014.1
20260905143003 28 79 8.0 14.5 0.00 0.05 0.00 87 1014.1
20260905141501 28 48 1.6 9.7 0.00 0.05 0.00 87 1013.9
20260905140058 27 5 0.0 4.8 0.00 0.05 0.00 90 1013.9
20260905134554 27 5 0.0 3.2 0.00 0.05 0.00 92 1013.9
20260905133051 26 31 1.6 4.8 0.00 0.05 0.00 95 1014.0
20260905131548 25 30 1.6 6.4 0.00 0.05 0.00 97 1014.3
20260905130049 25 5 0.0 0.0 0.00 0.05 0.00 99 1013.9
20260905124536 23 5 0.0 0.0 0.00 0.05 0.00 99 1013.7
20260905123034 23 355 0.0 0.0 0.00 0.05 0.00 98 1013.6
20260905121534 23 355 0.0 0.0 0.00 0.05 0.00 98 1013.4
20260905120037 23 355 0.0 0.0 0.00 0.05 0.00 98 1013.2
20260905114533 23 355 0.0 0.0 0.00 0.05 0.00 98 1013.1
20260905113045 23 355 0.0 0.0 0.00 0.05 0.00 98 1012.8
20260905111551 23 355 0.0 0.0 0.00 0.05 0.00 98 1012.9
20260905110040 23 339 0.0 0.0 0.00 0.05 0.00 98 1012.7
20260905104514 23 339 0.0 0.0 0.00 0.05 0.00 98 1012.7
20260905103012 23 339 0.0 0.0 0.00 0.05 0.00 98 1012.7
20260905101603 23 339 0.0 0.0 0.00 0.05 0.00 98 1012.8
20260905100056 23 339 0.0 0.0 0.00 0.05 0.00 98 1012.8
20260905094536 23 339 0.0 0.0 0.00 0.05 0.00 98 1012.8
20260905093035 23 339 0.0 0.0 0.00 0.05 0.00 98 1012.8
20260905091526 23 339 0.0 0.0 0.00 0.05 0.00 98 1012.9
20260905090022 23 339 0.0 0.0 0.00 0.05 0.00 97 1012.9
20260905084520 23 339 0.0 0.0 0.00 0.05 0.00 98 1013.0
20260905083020 23 339 0.0 0.0 0.00 0.05 0.00 98 1012.9
20260905081519 23 339 0.0 0.0 0.00 0.05 0.00 97 1013.0
20260905080022 23 339 0.0 0.0 0.00 0.05 0.00 97 1013.0
20260905074519 23 339 0.0 0.0 0.00 0.05 0.00 97 1013.1
20260905073014 23 339 0.0 0.0 0.00 0.05 0.00 97 1013.1
20260905071558 23 339 0.0 0.0 0.00 0.05 0.00 97 1013.2
20260905070056 23 339 0.0 0.0 0.00 0.05 0.00 97 1013.2
20260905064544 24 339 0.0 0.0 0.00 0.05 0.00 97 1013.2
20260905063043 24 339 0.0 0.0 0.00 0.05 0.00 97 1013.1
20260905061541 24 339 0.0 0.0 0.00 0.05 0.00 97 1013.2
20260905060039 24 339 0.0 0.0 0.00 0.05 0.00 97 1013.3
20260905054539 25 339 0.0 0.0 0.00 0.05 0.00 97 1013.5
20260905053042 25 339 0.0 0.0 0.00 0.05 0.00 96 1013.5
20260905051543 25 339 0.0 0.0 0.00 0.05 0.00 96 1013.5
20260905050035 25 339 0.0 0.0 0.00 0.05 0.00 96 1013.5
20260905044514 25 339 0.0 0.0 0.00 0.05 0.00 96 1013.7
20260905043013 25 339 0.0 0.0 0.00 0.05 0.00 96 1013.8
20260905041600 25 339 0.0 0.0 0.00 0.05 0.00 96 1013.7
20260905034535 26 339 0.0 0.0 0.00 0.05 0.05 95 1013.9
20260905033105 26 339 0.0 0.0 0.00 0.05 0.05 95 1013.9
20260905031518 26 339 0.0 0.0 0.00 0.05 0.05 95 1013.7
20260905030017 26 339 0.0 0.0 0.00 0.05 0.05 95 1013.6
20260905024601 26 339 0.0 0.0 0.00 0.05 0.05 95 1013.4
20260905023125 26 339 0.0 0.0 0.00 0.05 0.05 95 1013.4